Weather in Zarechye

Russia / Kaliningrad Oblast     54°36′51″N   21°02′03″E
В апреле 2022 года жителям России запретили посещать сайт meteo.paraplan.net по решению Генеральной прокуратуры. Аудитория сайта уменьшилась в 10 раз. Владельцы сайта не видят смысла в поддержке погодного сервера в таких условиях. Сайт будет закрыт в октябре.
temp.,
°C
wind,
m/s
gust,
m/s
humid.,
%
clouds,
%
prec.,
mm/h
press.,
hPa
HPBL,
m
4 october, tue
tue423:00+10nw613765 0.0 1010613
02:00+10nw6138079 0.1 1010696
05:00+11nw71378100 0.1 10101000
08:00+11nw612816 0.3 1011921
11:00+14nw8116584 0.1 10121391
14:00+14nw71070100 0.3 10141483
17:00+13nw6107288 0.1 10161078
20:00+9wnw4108852 0.1 1017282
5 october, wed
wed523:00+8wsw379317 0.0 1018137
02:00+9wsw4994100 0.0 1019231
05:00+10sw41088100 0.0 1018265
08:00+11sw51283100 0.0 1017362
11:00+14sw61270100 0.0 1017549
14:00+16sw51063100 0.0 1017740
17:00+15sw4866100 0.0 1016446
20:00+12sw41175100 0.0 1017313
6 october, thu
thu623:00+11ssw4117893 0.0 1017269
02:00+11ssw412835 0.0 1016248
05:00+11sw412841 0.0 1015247
08:00+12sw513790 0.0 1016319
11:00+18wsw7126134 0.0 1017866
14:00+14w8138049 0.0 10201013
17:00+15w814690 0.0 10231230
20:00+12w613760 0.0 1025836
7 october, fri
fri723:00+12wsw613760 0.0 1027692
02:00+10wsw513810 0.0 1027415
05:00+9wsw411865 0.0 1027301
08:00+9wsw411820 0.0 1027309
11:00+15wsw58550 0.0 1027824
14:00+17sw57445 0.0 10251195
17:00+15ssw36535 0.0 1023174
20:00+10s38685 0.0 1022125
8 october, sat
sat823:00+9s412732 0.0 1021224
02:00+9s412725 0.0 1018249
05:00+8s411818 0.0 1016206
08:00+9ssw411838 0.0 1015276
11:00+16wsw69495 0.0 1015741
14:00+17w7944100 0.0 10141412
17:00+14w5970100 0.2 1015793
20:00+10w398812 0.4 1016277